Flag for U.S.A. Weather past 2 weeks in Providence, Rhode Island, U.S.A.

Now
34 °F

Light snow. Overcast.


Feels Like: 26 °F
Forecast: 20 / 35 °F
Wind: 10 mph from Northwest

Location: Green State Airport

Current Time: Jan 30, 2015 at 4:50:30 PM

Latest Report: Jan 30, 2015 at 3:51 PM


Visibility: 9 mi

Pressure: 29.72 "Hg

Humidity: 73%

Dew point: 26 °F

Location of ProvidenceLocation

Historic Weather in Providence — Graph

°F

Providence temperature yesterday

Maximum temperature yesterday: 32 °F (at 12:51 PM)
Minimum temperature yesterday: 5 °F (at 6:51 AM)
Average temperature yesterday: 20 °F

Past Weeks' High & Low Weather Summary

 TemperatureHumidityPressure
High52 °F (Jan 18, 6:51 PM)96% (Jan 24, 4:51 AM)30.39 "Hg (Jan 24, 4:51 AM)
Low5 °F (Jan 29, 6:51 AM)22% (Jan 17, 1:51 PM)29.13 "Hg (Jan 24, 4:51 PM)
Average28 °F65%29.92 "Hg
* Reported Jan 15 2:51 PM — Jan 30 2:51 PM, Providence, Weather by CustomWeather, © 2014

Note: Actual official high and low records may vary slightly from our data, if they occured in-between our weather recording intervals... More about our weather records

Advertising

Providence weather history for previous 24 hours

 ConditionsComfort  
Time TempWeatherWind HumidityBarometerVisibility
2:51 PM
Jan 30
34 °FOvercast.9 mph76%29.71 "Hg10 mi
1:51 PM34 °FMostly cloudy.6 mph79%29.72 "Hg10 mi
12:51 PM34 °FLight snow. Mostly cloudy.6 mph82%29.73 "Hg5 mi
11:51 AM33 °FLight snow. Fog.5 mph88%29.76 "Hg1 mi
10:51 AM34 °FLight snow. Fog.No wind92%29.78 "Hg1 mi
9:58 AM32 °FLight snow. Ice fog.3 mph96%29.80 "Hg1 mi
8:51 AM33 °FLight snow. Fog.No wind92%29.82 "Hg1 mi
7:51 AM32 °FIce fog.No wind92%29.83 "Hg4 mi
6:51 AM32 °FOvercast.5 mph92%29.84 "Hg7 mi
5:51 AM32 °FMostly cloudy.3 mph92%29.86 "Hg10 mi
4:59 AM31 °FMostly cloudy.No wind92%29.88 "Hg10 mi
4:01 AM32 °FLight snow. Ice fog.No wind92%29.90 "Hg2 mi
2:51 AM32 °FLight snow. Ice fog.6 mph88%29.94 "Hg3 mi
1:51 AM29 °FOvercast.No wind85%29.98 "Hg10 mi
12:51 AM29 °FOvercast.3 mph82%30.01 "Hg10 mi
11:51 PM
Jan 29
29 °FMostly cloudy.No wind79%30.04 "Hg10 mi
10:51 PM28 °FMostly cloudy.No wind75%30.07 "Hg10 mi
9:51 PM27 °FMostly cloudy.5 mph72%30.10 "Hg10 mi
8:51 PM26 °FOvercast.No wind71%30.12 "Hg10 mi
7:51 PM28 °FMostly cloudy.No wind64%30.15 "Hg10 mi
6:51 PM27 °FMostly cloudy.5 mph63%30.16 "Hg10 mi
5:51 PM25 °FPartly cloudy.6 mph66%30.18 "Hg10 mi
4:51 PM27 °FPartly sunny.6 mph58%30.19 "Hg10 mi
Weather by CustomWeather, © 2014

See weather overviewHow to use our weather pages